User: anonymous   Login
Location: Ravensburg
(48.5621°N, 13.4088°E)
Time: 14:55:14
(UTC+02:00)
Language:

ISS - Orbit

View from above orbital plane
View from above orbital plane
View from above satellite
View from above satellite

Ground track
Ground track

The orbit data is extracted from the following two-line orbital elements,

1 25544U 98067A   17263.52308406  .00016717  00000-0  10270-3 0  9026
2 25544  51.6402 283.0715 0003968 300.6177  59.4584 15.54233100 36576
Epoch (UTC): 20 September 2017 12:33:14
Eccentricity: 0.0003968
inclination: 51.6402°
perigee height: 401 km
apogee height: 407 km
right ascension of ascending node: 283.0715°
argument of perigee: 300.6177°
revolutions per day: 15.54233100
mean anomaly at epoch: 59.4584°
orbit number at epoch: 3657

The dashed part of the orbit path shows where the satellite is in the earth's shadow,  

DLR